This is the latest recevied weather packets stored in our database for station/object KB1RMA-4. If no packets are shown the sender has not sent any weather packets the latest 10 day(s).
| Time | Temp. | Humidity | Pressure | Rain* | Wind** | Luminosity | Snow |
|---|---|---|---|---|---|---|---|
| 1788105934 | 27.78° C | 47% | 1018.2 hPa | 0 mm | - | 423 W/m² | - |
| 1788105629 | 27.22° C | 48% | 1018.3 hPa | 0 mm | - | 358 W/m² | - |
| 1788105325 | 27.22° C | 49% | 1018.2 hPa | 0 mm | - | 383 W/m² | - |
| 1788105020 | 26.67° C | 48% | 1018.4 hPa | 0 mm | - | 353 W/m² | - |
| 1788104715 | 26.67° C | 50% | 1018.5 hPa | 0 mm | - | 273 W/m² | - |
| 1788104412 | 27.22° C | 49% | 1018.3 hPa | 0 mm | - | 383 W/m² | - |
| 1788104108 | 26.67° C | 48% | 1018.6 hPa | 0 mm | - | 393 W/m² | - |
| 1788103807 | 26.67° C | 52% | 1018.6 hPa | 0 mm | - | 322 W/m² | - |
| 1788103502 | 26.67° C | 49% | 1018.8 hPa | 0 mm | - | 316 W/m² | - |
| 1788103201 | 26.67° C | 49% | 1018.9 hPa | 0 mm | - | 315 W/m² | - |
| 1788102901 | 26.67° C | 48% | 1018.6 hPa | 0 mm | - | 312 W/m² | - |
| 1788102595 | 26.67° C | 50% | 1018.7 hPa | 0 mm | - | 339 W/m² | - |
| 1788102290 | 26.67° C | 48% | 1018.7 hPa | 0 mm | - | 415 W/m² | - |
| 1788101990 | 26.67° C | 47% | 1018.8 hPa | 0 mm | - | 399 W/m² | - |
| 1788101684 | 26.67° C | 47% | 1018.9 hPa | 0 mm | - | 398 W/m² | - |
| 1788101380 | 26.67° C | 48% | 1018.8 hPa | 0 mm | - | 377 W/m² | - |
| 1788101077 | 26.67° C | 47% | 1018.7 hPa | 0 mm | - | 436 W/m² | - |
| 1788100776 | 27.22° C | 46% | 1018.9 hPa | 0 mm | - | 433 W/m² | - |
| 1788100472 | 27.22° C | 47% | 1018.9 hPa | 0 mm | - | 752 W/m² | - |
| 1788100170 | 26.67° C | 49% | 1019 hPa | 0 mm | - | 613 W/m² | - |
| 1788099866 | 26.11° C | 50% | 1019.1 hPa | 0 mm | - | 569 W/m² | - |
| 1788099566 | 25.56° C | 49% | 1019.1 hPa | 0 mm | - | 730 W/m² | - |
| 1788099261 | 25.56° C | 50% | 1019.4 hPa | 0 mm | - | 464 W/m² | - |
| 1788098957 | 25° C | 53% | 1019.4 hPa | 0 mm | - | 632 W/m² | - |
| 1788098652 | 24.44° C | 53% | 1019.2 hPa | 0 mm | - | 344 W/m² | - |
* Rain latest hour (hover to see other rain measurements)
** Current wind speed in m/s (hover to see current wind gust speed)